Location: Colonia Mina de C?rbuni
(46.1667°N, 22.7167°E)
Time: 16:17:11
(UTC+00:00)

Courier 1B - Pass Details

Date: 24 April 2024
Orbit: 962 x 1208 km, 28.3° (Epoch: 23 May)

Event Time Altitude Azimuth Distance (km) Brightness Sun altitude
Rises 02:53:53 0° 248° (WSW) 3,945 - -6.0°
Exits shadow 02:56:32 - 235° (SW) 3,309 9.6 -5.6°
Reaches altitude 10° 02:58:44 10° 221° (SW) 2,920 9.4 -5.3°
Maximum altitude 03:01:23 12° 199° (SSW) 2,713 9.4 -4.9°
Drops below altitude 10° 03:03:59 10° 176° (S) 2,848 9.7 -4.5°
Sets 03:08:34 0° 148° (SSE) 3,740 10.7 -3.7°
